DO8TBO-15 Weather Reports


Display with metric or nautical units.
time (UTC)temp
F
wind
direction
speed
MPH
gust
MPH
rain 1hr
in
rain 24hr
in
rain mn
in
humidity
%
barometer
mb
20260503220543 58 0.0 0.0 0.00 0.00 0.00 1013.3
20260503215539 58 0.0 0.0 0.00 0.00 0.00 1013.3
20260503214536 58 0.0 0.0 0.00 0.00 0.00 1013.1
20260503213532 58 0.0 0.0 0.00 0.00 0.00 1013.0
20260503212559 59 0.0 0.0 0.00 0.00 0.00 1012.9
20260503211555 60 0.0 0.0 0.00 0.00 0.00 1012.8
20260503210550 60 0.0 0.0 0.00 0.00 0.00 1012.8
20260503205547 60 0.0 0.0 0.00 0.00 0.00 1012.6
20260503204543 60 0.0 0.0 0.00 0.00 0.00 1012.5
20260503203539 60 0.0 0.0 0.00 0.00 0.00 1012.3
20260503202535 60 0.0 0.0 0.00 0.00 0.00 1012.3
20260503201532 60 0.0 0.0 0.00 0.00 0.00 1012.2
20260503200558 61 0.0 0.0 0.00 0.00 0.00 1012.2
20260503195554 61 0.0 0.0 0.00 0.00 0.00 1012.0
20260503194551 63 0.0 0.0 0.00 0.00 0.00 1011.9
20260503193547 63 0.0 0.0 0.00 0.00 0.00 1011.9
20260503192543 64 0.0 0.0 0.00 0.00 0.00 1011.9
20260503191539 64 0.0 0.0 0.00 0.00 0.00 1011.9
20260503190535 65 0.0 0.0 0.00 0.00 0.00 1011.9
20260503184527 68 0.0 0.0 0.00 0.00 0.00 1011.7
20260503183524 69 0.0 0.0 0.00 0.00 0.00 1011.6
20260503182521 70 0.0 0.0 0.00 0.00 0.00 1011.5
20260503181516 71 0.0 0.0 0.00 0.00 0.00 1011.4
20260503180613 72 0.0 0.0 0.00 0.00 0.00 1011.4
20260503175609 73 0.0 0.0 0.00 0.00 0.00 1011.3
20260503174605 74 0.0 0.0 0.00 0.00 0.00 1011.3
20260503173602 75 0.0 0.0 0.00 0.00 0.00 1011.3
20260503172557 74 0.0 0.0 0.00 0.00 0.00 1011.3
20260503171554 74 0.0 0.0 0.00 0.00 0.00 1011.4
20260503170550 74 0.0 0.0 0.00 0.00 0.00 1011.4
20260503150535 80 0 2.0 5.0 0.00 0.00 0.00 1011.9
20260503130549 83 180 1.0 2.0 0.00 0.00 0.00 1012.9
20260503110534 78 225 2.0 4.0 0.00 0.00 0.00 1014.0
20260503081559 70 180 0.0 4.0 0.00 0.00 0.00 1015.5
20260503080555 71 180 1.0 2.0 0.00 0.00 0.00 1015.5
20260503072540 65 180 0.0 3.0 0.00 0.00 0.00 1015.5
20260503071537 63 180 0.0 2.0 0.00 0.00 0.00 1015.6
20260503070532 62 0.0 0.0 0.00 0.00 0.00 1015.6
20260503054603 52 0.0 2.0 0.00 0.00 0.00 1015.6
20260503053559 51 0.0 2.0 0.00 0.00 0.00 1015.7
20260503052555 49 315 0.0 2.0 0.00 0.00 0.00 1015.6
20260503051551 48 0.0 0.0 0.00 0.00 0.00 1015.5
20260503050547 46 0.0 0.0 0.00 0.00 0.00 1015.5
20260503045544 46 0.0 0.0 0.00 0.00 0.00 1015.4
20260503044541 45 0.0 0.0 0.00 0.00 0.00 1015.4
20260503042533 44 0.0 0.0 0.00 0.00 0.00 1015.4
20260503041529 43 0.0 0.0 0.00 0.00 0.00 1015.4
20260503040525 43 0.0 0.0 0.00 0.00 0.00 1015.4
20260503035522 43 0.0 0.0 0.00 0.00 0.00 1015.4
20260503034519 43 0.0 0.0 0.00 0.00 0.00 1015.5
20260503033614 43 0.0 0.0 0.00 0.00 0.00 1015.5
20260503032611 43 0.0 0.0 0.00 0.00 0.00 1015.5
20260503031607 43 0.0 0.0 0.00 0.00 0.00 1015.5
20260503030604 44 0.0 0.0 0.00 0.00 0.00 1015.5
20260503025559 44 0.0 0.0 0.00 0.00 0.00 1015.4
20260503024556 44 0.0 0.0 0.00 0.00 0.00 1015.5
20260503023552 44 0.0 0.0 0.00 0.00 0.00 1015.6
20260503022548 44 0.0 0.0 0.00 0.00 0.00 1015.7
20260503021544 44 0.0 0.0 0.00 0.00 0.00 1015.7
20260503020541 45 0.0 0.0 0.00 0.00 0.00 1015.8
20260503015538 45 0.0 0.0 0.00 0.00 0.00 1015.8
20260503014533 45 0.0 0.0 0.00 0.00 0.00 1015.9
20260503013529 46 0.0 0.0 0.00 0.00 0.00 1015.9
20260503012526 46 0.0 0.0 0.00 0.00 0.00 1015.9
20260503011522 45 0.0 0.0 0.00 0.00 0.00 1016.0
20260503010518 45 0.0 0.0 0.00 0.00 0.00 1016.0
20260503005614 45 0.0 0.0 0.00 0.00 0.00 1016.0
20260503004610 45 0.0 0.0 0.00 0.00 0.00 1016.1
20260503003608 46 0.0 0.0 0.00 0.00 0.00 1016.1
20260503002603 46 0.0 0.0 0.00 0.00 0.00 1016.1
20260503001600 46 0.0 0.0 0.00 0.00 0.00 1016.1
20260503000556 47 0.0 0.0 0.00 0.00 0.00 1016.2
20260502235552 47 0.0 0.0 0.00 0.00 0.00 1016.2
20260502234548 48 0.0 0.0 0.00 0.00 0.00 1016.2
20260502233544 48 0.0 0.0 0.00 0.00 0.00 1016.2
20260502232540 49 0.0 0.0 0.00 0.00 0.00 1016.2
20260502231537 49 0.0 0.0 0.00 0.00 0.00 1016.2
20260502230534 49 0.0 0.0 0.00 0.00 0.00 1016.3
20260502225529 49 0.0 0.0 0.00 0.00 0.00 1016.4
20260502224525 50 0.0 0.0 0.00 0.00 0.00 1016.4
20260502223522 50 0.0 0.0 0.00 0.00 0.00 1016.4
20260502222517 51 0.0 0.0 0.00 0.00 0.00 1016.4
20260502221614 51 0.0 0.0 0.00 0.00 0.00 1016.4